Theta_e
302 296 291 294 296 292 294 292 291 291 295 294 295 295 298 301 301 301 303 305 306 307 310 307 306 305 305 305 305 305 306 308 312 318 322 323 321 317 313 307 305 306 308 310
296 290 296 298 295 293 292 290 289 292 297 296 295 294 298 300 300 301 302 303 305 307 305 304 304 303 303 302 303 303 303 305 308 315 319 322 317 312 307 303 300 301 304 306
290 291 298 296 294 292 292 289 289 288 294 295 293 291 293 296 299 301 302 304 305 306 305 304 302 302 301 300 301 301 301 302 306 310 316 314 312 310 308 305 300 299 301 302
292 295 295 294 292 294 289 294 293 292 291 285 293 284 292 294 295 296 298 300 303 305 306 305 302 300 299 297 298 299 299 299 301 306 315 314 315 311 304 302 299 298 299 299
289 292 293 292 292 295 291 296 294 293 291 289 289 286 289 290 291 294 297 298 300 300 304 303 301 299 297 297 297 297 297 297 299 303 308 311 307 303 300 299 297 297 297 297
292 296 295 294 294 297 295 293 292 292 290 283 286 286 286 288 290 294 296 298 297 297 299 300 298 296 295 295 295 296 296 295 297 299 300 303 303 300 300 298 298 296 296 295
291 292 295 295 292 294 294 290 283 281 282 280 285 284 288 292 293 294 296 297 296 297 298 296 295 295 295 295 295 294 294 292 293 295 296 297 297 298 297 296 295 294 294 293
284 282 292 296 293 291 290 288 283 276 277 281 284 281 288 293 294 295 295 296 296 296 296 296 296 295 295 294 294 293 292 291 292 292 292 293 293 294 293 292 293 292 292 292
283 282 293 294 295 295 291 287 289 283 278 281 285 287 292 292 292 293 293 294 295 295 295 295 295 295 294 294 293 293 292 290 290 290 291 291 291 291 290 290 291 292 292 290
288 283 291 293 296 295 293 293 285 286 278 277 280 282 285 289 291 292 293 294 295 295 295 295 295 295 295 294 293 292 292 290 289 289 290 289 289 289 289 290 289 290 289 289
290 288 287 292 291 289 289 288 288 288 285 279 278 283 290 290 292 293 295 296 297 296 296 295 295 295 295 294 292 292 291 290 289 289 289 288 288 288 288 288 289 288 288 287
292 288 284 287 292 293 293 291 290 284 280 283 281 284 291 292 293 293 296 296 297 298 298 297 297 296 295 294 293 292 291 290 290 289 288 287 287 287 287 287 287 287 286 286
292 287 281 283 289 291 290 291 291 288 287 282 281 284 291 292 294 294 296 297 297 297 298 298 298 297 297 296 294 293 291 290 289 287 287 286 286 286 286 286 286 286 286 285
295 287 285 281 284 289 287 290 291 290 285 284 284 287 290 292 293 294 296 297 298 297 298 299 298 298 298 297 296 294 292 290 288 287 286 286 285 285 285 285 286 285 285 284
293 285 286 285 287 288 288 289 290 289 289 285 288 288 292 294 295 296 297 297 296 296 296 297 298 298 298 297 295 294 292 289 288 286 285 285 285 285 285 284 285 284 284 284
294 286 287 283 285 286 285 288 290 290 290 290 290 289 296 298 298 297 296 296 295 296 297 297 296 296 295 296 295 292 291 288 287 286 285 285 284 283 283 283 283 283 283 283
291 286 285 282 284 286 282 285 287 289 292 291 287 292 296 294 294 295 297 297 296 297 298 297 295 294 294 294 293 293 291 288 286 286 285 283 283 282 282 282 282 282 282 283
290 287 286 279 283 276 285 285 290 289 291 293 293 294 296 297 298 298 299 298 297 298 298 297 295 294 293 292 290 290 288 286 285 285 284 282 282 281 281 281 281 281 282 281
294 288 279 279 279 283 286 284 284 285 287 293 293 295 296 298 298 296 298 299 300 300 301 299 295 294 292 289 288 286 284 284 283 283 282 282 281 281 280 280 280 281 281 280
290 291 287 275 279 276 283 285 289 291 282 292 293 293 295 293 290 295 301 298 297 297 294 292 291 288 289 287 285 284 283 282 282 282 282 281 281 281 280 280 280 280 281 280
284 284 282 279 280 282 287 285 290 281 285 288 291 294 295 291 296 294 294 292 292 292 289 288 286 286 286 283 281 282 282 281 283 281 281 280 280 280 281 280 280 279 279 279
284 282 283 279 280 278 285 285 284 290 288 287 288 291 291 294 290 289 288 287 287 287 286 286 286 285 284 281 280 281 281 282 280 279 278 278 279 280 280 279 279 279 279 277
283 287 285 286 286 286 287 289 290 287 289 288 288 288 290 288 288 289 288 287 286 286 285 284 284 283 281 278 279 280 282 278 276 276 276 276 278 279 279 279 277 277 277 276
283 283 286 286 286 286 286 287 286 288 287 287 287 287 287 287 286 286 286 286 286 284 283 282 281 280 281 278 277 279 277 276 274 275 275 275 276 277 278 279 278 278 277 275
285 284 282 284 283 282 285 286 288 287 286 286 286 286 286 286 286 286 285 284 283 284 283 281 281 282 283 280 278 276 275 274 275 275 275 276 277 277 277 278 278 277 277 277
282 283 286 286 287 288 289 290 288 286 285 285 285 284 284 285 286 285 284 285 285 284 284 280 279 279 281 277 275 273 273 274 275 275 275 276 276 277 277 277 276 279 278 279
Wind_Speed
2 6 11 13 8 2 5 5 6 2 2 3 7 14 14 10 10 11 11 10 11 11 8 7 6 5 5 5 5 5 4 5 2 1 2 2 2 3 5 5 7 7 7 7
6 10 6 7 7 5 5 5 3 1 1 4 5 16 17 12 13 15 17 15 14 12 10 9 7 5 5 6 5 5 5 5 4 1 2 1 3 5 5 4 6 7 8 8
10 2 12 9 8 10 4 7 3 2 1 2 7 11 7 4 8 10 12 14 15 16 14 13 11 8 6 5 5 5 5 5 4 1 3 4 6 4 3 3 4 7 8 8
4 4 14 12 11 10 10 7 6 5 3 4 4 6 4 2 6 6 6 7 11 13 13 12 12 10 8 6 4 5 6 5 5 4 3 3 2 3 3 4 4 5 8 8
6 9 14 13 9 9 2 8 6 2 3 3 5 5 5 3 4 3 4 2 2 4 8 11 12 9 7 6 5 5 6 6 6 5 3 3 5 5 4 3 4 5 6 7
4 1 4 4 4 9 13 9 6 3 2 5 4 6 5 4 1 1 4 3 1 1 5 10 9 9 7 5 5 5 6 6 6 6 6 6 6 5 4 3 2 3 4 4
5 4 2 3 10 5 4 10 3 4 4 3 3 5 10 5 6 7 9 3 1 4 9 11 11 9 7 7 6 5 5 6 6 7 7 7 6 6 5 3 3 3 3 4
9 6 9 6 4 9 7 5 3 5 4 2 2 7 3 1 2 4 3 3 4 6 7 8 8 8 8 7 6 6 6 6 6 6 7 6 5 4 4 4 3 3 3 4
7 3 2 1 2 10 8 9 2 6 1 3 4 4 9 2 1 0 3 4 6 6 7 8 8 8 8 8 7 6 6 6 5 6 5 5 5 5 5 5 4 3 3 3
6 7 1 2 3 3 4 12 4 1 5 6 3 5 6 2 2 3 5 6 7 7 7 8 7 7 7 7 6 6 6 6 5 5 4 4 5 4 5 4 4 5 4 4
5 3 4 5 10 13 6 6 2 4 1 3 2 3 2 4 3 3 7 8 9 9 9 8 7 6 6 6 7 7 6 6 6 5 5 5 4 4 4 4 5 5 5 4
4 5 5 7 3 3 4 7 7 5 6 3 2 4 4 4 5 6 7 8 8 7 8 8 8 8 9 9 8 8 7 7 6 6 6 5 5 5 5 5 5 5 5 5
11 5 6 3 3 2 7 8 9 3 2 8 6 3 3 3 5 6 11 11 9 9 9 9 9 9 9 9 9 9 8 8 7 7 7 6 6 6 6 6 6 6 6 5
8 4 4 9 3 11 12 16 16 16 7 7 13 8 7 5 7 9 11 11 11 10 11 10 9 10 9 9 9 9 9 9 9 9 8 8 7 6 6 6 7 7 6 6
9 5 5 2 2 5 6 18 20 22 20 14 10 21 17 12 13 15 16 12 10 11 9 9 9 8 8 8 8 7 7 8 9 8 8 8 7 7 7 7 7 6 6 6
5 3 4 3 1 1 7 14 19 20 22 24 21 23 12 15 11 14 17 17 15 15 13 12 10 9 9 7 4 5 8 10 11 11 10 8 9 8 7 7 7 7 7 7
11 6 4 6 2 3 11 16 17 17 22 22 24 20 13 13 14 17 19 18 18 16 13 12 11 10 8 7 6 8 7 8 9 9 9 10 10 10 10 9 9 10 10 9
15 9 1 4 4 11 2 1 9 20 16 20 19 14 16 18 17 15 18 19 17 14 12 12 10 9 8 8 7 5 6 7 9 9 9 9 10 9 10 10 10 10 9 9
12 7 4 5 6 11 15 8 9 12 15 21 21 22 16 10 7 13 15 14 15 13 11 8 8 8 9 9 7 7 7 6 7 9 10 11 11 11 11 11 11 9 9 9
6 8 5 4 6 8 3 0 5 4 10 13 18 21 18 12 11 15 11 12 13 10 4 5 6 5 7 8 7 6 6 7 10 9 9 10 10 10 11 11 10 9 9 8
8 6 12 6 7 8 8 5 4 6 5 3 8 14 12 13 14 0 2 3 3 4 6 5 7 10 7 7 7 7 6 11 6 6 7 9 10 10 11 11 10 9 9 9
10 10 8 4 8 16 7 7 10 4 2 1 1 5 11 10 3 4 4 3 4 6 7 9 9 8 8 8 8 8 10 5 5 7 7 8 8 8 8 10 9 10 10 11
8 7 8 12 8 3 13 4 7 3 1 1 2 4 7 6 7 6 5 6 7 8 6 4 7 6 5 7 8 8 6 7 7 7 8 8 9 9 10 11 12 11 10 8
5 2 4 4 4 5 9 6 5 4 3 2 1 3 5 3 4 6 7 5 6 5 7 6 6 8 10 9 10 11 5 6 8 8 9 9 10 11 10 9 9 9 9 8
3 11 7 3 3 2 9 9 7 5 4 4 1 3 4 5 5 6 6 7 6 8 6 5 10 11 13 6 8 7 7 8 9 8 9 10 9 10 9 9 9 9 8 9
6 7 10 8 8 4 4 8 5 8 7 7 6 5 6 7 9 5 7 8 8 10 8 8 6 5 9 6 6 8 10 11 10 10 9 9 8 9 8 8 7 12 11 15
Wind_Direction
115 190 199 193 207 81 166 190 201 144 74 256 254 268 269 257 245 246 244 229 224 219 178 167 147 139 122 90 92 69 64 29 19 128 154 158 107 97 76 58 36 33 22 15
150 216 171 149 144 135 136 158 186 125 49 247 289 282 274 251 244 235 236 233 226 212 198 181 164 155 139 111 90 70 51 31 28 53 82 82 115 83 87 83 55 37 32 27
195 124 158 150 155 174 202 220 195 298 179 191 300 263 252 237 257 259 254 253 242 228 208 186 175 159 139 111 93 87 58 39 35 73 126 108 107 114 128 88 61 35 33 32
190 149 159 171 185 196 212 191 163 163 232 261 337 292 284 258 274 264 272 245 242 234 228 184 173 161 145 124 103 88 76 57 35 19 147 137 118 126 79 75 63 52 37 34
157 170 157 172 198 175 148 159 154 148 223 297 182 242 281 313 255 178 34 348 273 301 234 188 172 150 132 138 117 97 82 67 56 60 83 106 91 92 103 94 85 63 54 39
96 49 181 149 126 165 136 108 82 80 213 242 195 231 250 216 202 212 296 339 346 111 161 152 135 138 130 124 119 110 103 80 63 68 70 91 111 116 115 94 81 58 55 45
135 149 157 147 114 114 156 156 139 213 209 253 112 205 263 268 274 291 305 316 138 149 153 152 151 150 142 147 130 119 114 90 76 76 72 73 81 86 91 84 66 61 59 45
168 189 176 169 190 175 172 192 209 219 202 131 154 229 247 242 296 320 328 124 119 134 144 153 151 155 157 156 155 146 135 125 111 98 92 91 97 101 97 85 85 74 71 60
152 129 86 140 146 154 166 209 81 110 70 251 203 248 271 198 218 93 126 140 141 146 156 162 164 168 165 166 170 163 154 138 128 125 119 107 97 99 103 105 106 107 108 96
168 113 160 128 142 85 203 148 150 175 205 230 181 258 248 200 203 164 173 167 163 165 173 173 177 178 176 174 170 174 169 159 150 130 115 109 109 106 107 105 97 93 87 82
146 107 133 154 214 180 155 185 148 145 248 255 291 231 187 236 287 238 188 182 180 183 184 183 185 185 183 183 186 188 183 171 164 158 146 141 128 117 110 104 98 90 90 83
176 94 133 193 9 315 220 205 179 203 191 241 322 251 163 246 265 231 191 184 194 191 181 181 182 182 188 194 193 197 192 190 182 171 166 157 145 136 124 118 114 115 107 90
167 158 126 165 224 172 219 200 198 117 127 195 199 192 169 246 232 200 175 185 189 188 182 180 183 194 198 199 199 201 198 197 184 176 174 167 161 159 152 146 142 137 133 126
147 156 206 226 158 159 199 208 202 205 216 212 227 248 201 193 195 183 187 187 187 192 192 189 192 201 203 203 203 202 201 198 186 184 183 180 175 168 164 154 153 152 147 133
172 162 190 67 66 192 208 206 206 213 218 225 228 231 226 197 195 190 189 188 191 204 198 202 212 209 206 207 203 203 198 191 186 185 187 190 175 170 166 164 158 148 145 136
190 118 138 149 42 264 249 227 220 220 227 238 244 248 236 232 202 186 201 198 205 214 206 211 211 203 202 201 195 172 189 186 184 192 196 184 175 171 172 163 158 152 147 147
171 134 145 210 111 8 269 218 214 221 222 227 231 240 209 215 204 202 207 211 215 221 214 214 217 211 193 189 182 192 179 167 186 196 194 187 183 178 175 170 169 166 163 160
157 141 59 114 144 231 298 53 236 222 230 226 246 245 228 218 221 215 213 213 220 225 221 210 206 195 178 171 179 149 157 174 184 197 199 190 182 178 173 174 177 172 167 166
167 141 114 165 215 302 291 196 182 191 242 229 233 239 233 229 216 236 228 228 234 233 241 235 181 177 170 173 169 166 169 182 192 198 197 190 184 178 176 179 179 176 172 168
150 170 182 159 208 235 260 20 128 86 290 231 223 233 224 173 223 242 226 217 231 231 207 183 157 135 165 179 166 172 188 196 213 200 196 187 183 176 180 181 176 172 173 166
159 164 195 180 223 269 236 161 167 150 232 232 213 220 194 198 223 183 182 226 251 192 163 150 168 186 184 146 162 197 189 222 202 176 176 179 177 174 176 169 169 167 169 164
164 160 187 164 216 258 148 113 189 197 203 209 155 175 192 211 169 174 170 184 189 192 179 189 185 199 183 176 179 206 218 204 177 177 178 175 169 171 166 162 163 165 161 163
191 203 172 194 208 89 186 213 202 163 321 162 144 173 176 188 224 231 199 196 210 205 196 176 202 202 194 193 197 211 226 169 166 164 169 166 166 167 167 169 171 171 170 168
233 178 193 138 189 203 207 231 252 204 186 192 130 137 165 179 195 219 233 216 213 201 208 193 190 222 234 202 204 222 163 157 161 169 172 170 171 173 173 176 179 174 175 168
168 147 150 288 263 274 252 230 233 187 181 215 131 140 171 181 216 219 216 227 220 222 216 192 209 226 241 181 211 187 169 164 177 178 178 181 183 182 179 181 179 182 184 182
192 161 185 217 179 178 195 212 194 186 208 194 175 224 233 196 222 206 234 230 220 223 222 216 226 256 261 212 202 189 183 176 173 183 183 182 172 179 179 176 175 188 178 188